Flag for Jersey Weather past 2 weeks in Saint Helier, Jersey

Now
57 °F

Passing clouds.


Feels Like: 55 °F
Forecast: 52 / 62 °F
Wind: 8 mph from Northeast

Location: Jersey Airport

Current Time: May 23, 2015 at 9:59:20 AM

Latest Report: May 23, 2015 at 9:20 AM


Visibility: N/A

Pressure: 30.27 "Hg

Humidity: 94%

Dew point: 55 °F

Location of Saint HelierLocation

Historic Weather in Saint Helier — Graph

°F

Saint Helier temperature yesterday

Maximum temperature yesterday: 55 °F (at 2:20 PM)
Minimum temperature yesterday: 50 °F (at 3:50 AM)
Average temperature yesterday: 53 °F

Past Weeks' High & Low Weather Summary

 TemperatureHumidityPressure
High64 °F (May 10, 5:20 PM)100% (May 9, 6:50 PM)30.42 "Hg (May 9, 6:50 PM)
Low45 °F (May 13, 12:50 AM)59% (May 13, 12:50 PM)29.80 "Hg (May 14, 6:50 AM)
Average54 °F84%30.14 "Hg
* Reported May 8 8:20 AM — May 23 8:20 AM, Saint Helier, Weather by CustomWeather, © 2015

Note: Actual official high and low records may vary slightly from our data, if they occured in-between our weather recording intervals... More about our weather records

Advertising

Saint Helier weather history for previous 24 hours

 ConditionsComfort  
Time TempWeatherWind HumidityBarometerVisibility
8:20 AM
Sat, May 23
55 °FPassing clouds.3 mph100%30.24 "HgN/A
7:50 AM54 °FPassing clouds.5 mph100%30.24 "HgN/A
7:20 AM54 °FPassing clouds.1 mph100%30.24 "HgN/A
6:50 AM54 °FPassing clouds.5 mph100%30.24 "HgN/A
6:20 AM54 °FPassing clouds.7 mph100%30.24 "HgN/A
5:50 AM54 °FPassing clouds.8 mph94%30.24 "HgN/A
5:20 AM54 °FPassing clouds.5 mph100%30.24 "HgN/A
4:50 AM52 °FPassing clouds.8 mph100%30.21 "HgN/A
4:20 AM54 °FPassing clouds.5 mph94%30.24 "HgN/A
3:50 AM54 °FFog.6 mph100%30.24 "Hg1 mi
10:20 PM
Fri, May 22
52 °FFog.8 mph100%30.30 "Hg0 mi
9:50 PM52 °FFog.7 mph100%30.30 "Hg0 mi
9:20 PM54 °FFog.13 mph94%30.30 "Hg0 mi
8:50 PM54 °FFog.8 mph94%30.30 "Hg0 mi
8:20 PM54 °FFog.8 mph100%30.30 "Hg0 mi
7:50 PM54 °FFog.9 mph100%30.27 "Hg0 mi
7:20 PM54 °FFog.12 mph94%30.30 "Hg0 mi
6:50 PM54 °FFog.13 mph100%30.30 "Hg0 mi
6:20 PM54 °FDrizzle. Partly sunny.10 mph100%30.30 "Hg1 mi
5:50 PM54 °FDrizzle. Broken clouds.9 mph100%30.30 "Hg1 mi
5:20 PM54 °FDrizzle. Partly sunny.13 mph100%30.30 "Hg1 mi
4:50 PM54 °FFog.12 mph100%30.30 "Hg2 mi
4:20 PM55 °FFog.15 mph94%30.30 "Hg1 mi
3:50 PM55 °FDrizzle. Partly sunny.15 mph94%30.33 "Hg1 mi
3:20 PM54 °FPartly sunny.14 mph100%30.33 "HgN/A
2:50 PM55 °FBroken clouds.15 mph94%30.33 "HgN/A
2:20 PM55 °FPartly sunny.13 mph94%30.33 "HgN/A
1:50 PM54 °FDrizzle. Broken clouds.14 mph100%30.33 "Hg4 mi
1:20 PM54 °FFog.13 mph100%30.36 "Hg3 mi
12:50 PM54 °FCool.14 mph100%30.36 "Hg1 mi
12:20 PM54 °FDrizzle. Fog.12 mph94%30.36 "Hg0 mi
11:50 AM54 °FCool.12 mph94%30.36 "Hg1 mi
11:20 AM52 °FDrizzle. Fog.9 mph100%30.39 "Hg1 mi
10:50 AM54 °FDrizzle. Fog.12 mph94%30.39 "Hg2 mi
10:20 AM54 °FFog.10 mph94%30.39 "Hg3 mi
9:50 AM54 °FPartly sunny.9 mph88%30.39 "HgN/A
9:20 AM54 °FPartly sunny.10 mph88%30.39 "HgN/A
Weather by CustomWeather, © 2015

See weather overviewHow to use our weather pages